Location: Cahas Mountain Overlook
(37.0833°N, 80.1000°W)
Time: 00:00:05
(UTC-04:00)

CAS-4B - Visible Passes

Search period start: 23 March 2023 00:00
Search period end: 02 April 2023 00:00
Orbit: 511 x 527 km, 43.0° (Epoch: 22 March)

Date Brightness Start Highest point End Pass type
(mag) Time Alt. Az. Time Alt. Az. Time Alt. Az.
23 Mar ? 06:44:04 10° SSW 06:47:09 21° SE 06:50:14 10° E visible
24 Mar ? 06:27:43 10° SSW 06:31:02 25° SE 06:34:22 10° E visible
25 Mar ? 06:11:25 10° SSW 06:14:54 29° SE 06:18:25 10° E visible
26 Mar ? 05:56:23 18° SSW 05:58:45 34° SE 06:02:24 10° E visible
27 Mar ? 05:41:14 29° SSW 05:42:35 40° SSE 05:46:21 10° ENE visible
28 Mar ? 05:25:58 44° S 05:26:24 47° SSE 05:30:16 10° ENE visible
29 Mar ? 05:10:36 52° SE 05:10:36 52° SE 05:14:08 10° ENE visible
30 Mar ? 04:55:09 42° E 04:55:09 42° E 04:57:57 10° ENE visible
30 Mar ? 06:30:07 10° W 06:33:53 42° NNW 06:37:44 10° ENE visible
31 Mar ? 04:39:37 30° ENE 04:39:37 30° ENE 04:41:46 10° ENE visible
31 Mar ? 06:14:35 14° WNW 06:17:43 39° N 06:21:31 10° ENE visible
01 Apr ? 04:24:02 22° ENE 04:24:02 22° ENE 04:25:32 10° ENE visible
01 Apr ? 05:59:00 18° WNW 06:01:32 37° N 06:05:17 10° ENE visible
